Location: Newark
(40.3500°N, 15.2333°E)
Time: 06:11:01
(UTC+00:00)

NOAA 19 - Pass Details

Date: 23 February 2020
Orbit: 842 x 860 km, 99.2° (Epoch: 04 April)

Event Time Altitude Azimuth Distance (km) Brightness Sun altitude
Rises 03:29:32 0° 35° (NE) 3,421 9.0 -26.0°
Reaches altitude 10° 03:33:11 10° 60° (ENE) 2,484 8.5 -25.4°
Maximum altitude 03:35:59 14° 91° (E) 2,204 8.3 -24.8°
Drops below altitude 10° 03:38:47 10° 122° (ESE) 2,481 8.3 -24.3°
Sets 03:42:24 0° 146° (SSE) 3,415 8.7 -23.6°
